Simultaneous Nadir Overpasses (SNOs) Predictions

Prediction of SNOs between GOES-16 and NPP Satellite Orbit:

Table of predicted SNOs for the next 14.0 days since TLE Epoch: 8/10/2024
Index Date Time (GOES-16) GOES-16 Lat,Lon NPP Lat,Lon Distance(km) Time Diff (sec)
1 08/11/2024 06:23:58 0.05, -75.21 0.01, -75.12 11.17 80
2 08/13/2024 18:27:11 -0.05, -75.22 -0.18, -75.90 77.12 80
3 08/14/2024 18:11:07 -0.04, -75.22 0.83, -71.37 439.64 80
4 08/16/2024 06:32:54 0.04, -75.24 0.36, -76.64 159.87 80
5 08/17/2024 06:11:29 0.03, -75.24 -0.65, -72.11 356.99 80
6 08/18/2024 18:33:27 -0.01, -75.25 -0.50, -77.42 247.25 80
7 08/19/2024 18:17:22 -0.01, -75.26 0.52, -72.89 270.15 80
8 08/21/2024 06:36:29 0.01, -75.28 0.66, -78.16 327.92 80
9 08/22/2024 06:17:45 0.01, -75.30 -0.37, -73.63 190.10 80
10 08/23/2024 18:39:41 -0.01, -75.32 -0.83, -78.94 412.33 80
